Home > Weather > Ulm > Past weeks

Flag for Germany Weather for the Past 2 Weeks in Ulm, Baden-Württemberg, Germany

Now
36 °F

Passing clouds.


Feels Like: 36 °F
Forecast: 38 / 52 °F
Wind: 2 mph from Northwest

Location: Laupheim Airport

Current Time: Feb 7, 2016 at 1:14:32 AM

Latest Report: Feb 6, 2016 at 11:20 PM


Visibility: N/A

Pressure: 29.80 "Hg

Humidity: 81%

Dew point: 30 °F

Location of UlmLocation

Historic Weather in Ulm — Graph

°F

Ulm Temperature Yesterday

Maximum temperature yesterday: 50 °F (at 1:20 PM)
Minimum temperature yesterday: 28 °F (at 2:20 AM)
Average temperature yesterday: 38 °F

High & Low Weather Summary for the Past Weeks

 TemperatureHumidityPressure
High55 °F (Feb 1, 11:49 AM)100% (Jan 23, 8:20 PM)30.63 "Hg (Jan 23, 8:20 PM)
Low21 °F (Jan 22, 11:20 PM)47% (Jan 25, 2:20 PM)29.80 "Hg (Feb 6, 11:20 PM)
Average41 °F81%30.25 "Hg
* Reported Jan 22 11:20 PM — Feb 6 11:20 PM, Ulm, Weather by CustomWeather, © 2016

Note: Actual official high and low records may vary slightly from our data, if they occured in-between our weather recording intervals... More about our weather records

Advertising

Ulm Weather History for the Previous 24 Hours

 ConditionsComfort  
Time TempWeatherWind HumidityBarometerVisibility
11:20 PM
Sat, Feb 6
36 °FPassing clouds.2 mph81%29.80 "HgN/A
10:20 PM45 °FPassing clouds.6 mph53%29.83 "HgN/A
9:20 PM46 °FPassing clouds.6 mph50%29.83 "HgN/A
8:20 PM36 °FPassing clouds.2 mph87%29.86 "HgN/A
7:20 PM39 °FPassing clouds.5 mph81%29.89 "HgN/A
6:20 PM41 °FPassing clouds.2 mph76%29.92 "HgN/A
5:20 PM45 °FBroken clouds.3 mph71%29.95 "HgN/A
4:20 PM50 °FBroken clouds.3 mph58%29.98 "HgN/A
3:20 PM50 °FBroken clouds.8 mph58%30.01 "HgN/A
2:20 PM50 °FPartly sunny.10 mph58%30.01 "HgN/A
1:20 PM50 °FPartly sunny.10 mph62%30.07 "HgN/A
12:20 PM45 °FPartly sunny.7 mph76%30.09 "HgN/A
11:20 AM41 °FPartly sunny.8 mph93%30.12 "HgN/A
10:20 AM34 °FPartly sunny.5 mph100%30.12 "Hg5 mi
9:20 AM30 °FIce fog.3 mph100%30.12 "Hg1 mi
8:20 AM30 °FIce fog.6 mph93%30.12 "Hg0 mi
7:20 AM30 °FIce fog.6 mph100%30.12 "Hg0 mi
6:20 AM30 °FIce fog.5 mph100%30.15 "Hg0 mi
5:20 AM30 °FIce fog.3 mph93%30.15 "Hg0 mi
4:20 AM28 °FIce fog.3 mph100%30.15 "Hg0 mi
3:20 AM28 °FIce fog.3 mph100%30.18 "Hg0 mi
2:20 AM28 °FIce fog.2 mph100%30.18 "Hg0 mi
1:20 AM30 °FIce fog.2 mph100%30.21 "Hg0 mi
Weather by CustomWeather, © 2016

See weather overviewHow to use our weather pages